EB2EMZ-3 Weather Reports


time (UTC)temp
C
wind
direction
speed
KPH
gust
KPH
rain 1hr
cm
rain 24hr
cm
rain mn
cm
humidity
%
barometer
mb
20260508060423 12 22 8.0 8.0 0.00 0.10 0.00 73 1011.9
20260508055923 12 22 4.8 4.8 0.00 0.10 0.00 75 1011.9
20260508055423 12 22 4.8 4.8 0.00 0.10 0.00 76 1011.9
20260508054923 12 45 1.6 3.2 0.00 0.10 0.00 76 1011.9
20260508054423 12 45 3.2 9.7 0.00 0.10 0.00 77 1012.0
20260508053923 12 0 9.7 9.7 0.00 0.10 0.00 77 1011.8
20260508053423 12 0 6.4 9.7 0.00 0.10 0.00 78 1011.9
20260508052923 11 0 4.8 4.8 0.00 0.10 0.00 79 1011.9
20260508052423 11 0 3.2 4.8 0.00 0.10 0.00 79 1011.7
20260508051923 11 0 4.8 4.8 0.00 0.10 0.00 79 1011.8
20260508051423 11 0 4.8 9.7 0.00 0.10 0.00 80 1011.8
20260508050923 11 0 9.7 9.7 0.00 0.10 0.00 80 1011.9
20260508050423 11 0 8.0 8.0 0.00 0.10 0.00 80 1011.9
20260508045923 11 0 3.2 3.2 0.00 0.10 0.00 81 1011.9
20260508045423 11 0 0.0 3.2 0.00 0.10 0.00 81 1011.9
20260508044923 11 0 3.2 6.4 0.00 0.10 0.00 80 1011.9
20260508044423 11 0 6.4 6.4 0.00 0.10 0.00 80 1011.7
20260508043923 11 0 6.4 6.4 0.00 0.10 0.00 80 1011.9
20260508043423 11 0 0.0 0.0 0.00 0.10 0.00 80 1011.9
20260508042923 11 0 0.0 0.0 0.00 0.10 0.00 80 1012.0
20260508042423 11 0 0.0 0.0 0.00 0.10 0.00 80 1012.0
20260508041923 11 0 0.0 0.0 0.00 0.10 0.00 80 1011.8
20260508041423 11 0 0.0 0.0 0.00 0.10 0.00 80 1012.0
20260508040923 11 0 0.0 0.0 0.00 0.10 0.00 80 1012.0
20260508040423 11 0 0.0 3.2 0.00 0.10 0.00 80 1012.0
20260508035924 11 0 3.2 3.2 0.00 0.10 0.00 80 1012.1
20260508035423 11 0 3.2 3.2 0.00 0.10 0.00 80 1012.0
20260508034923 11 0 3.2 3.2 0.00 0.10 0.00 80 1012.0
20260508034423 11 0 1.6 8.0 0.00 0.10 0.00 80 1011.9
20260508033923 11 0 8.0 8.0 0.00 0.10 0.00 80 1011.9
20260508033423 12 0 3.2 4.8 0.00 0.10 0.00 80 1011.9
20260508032923 12 0 4.8 4.8 0.00 0.10 0.00 81 1011.9
20260508032423 12 0 4.8 6.4 0.00 0.10 0.00 81 1011.9
20260508031923 12 0 6.4 6.4 0.00 0.10 0.00 81 1012.0
20260508031423 12 0 6.4 8.0 0.00 0.10 0.00 81 1011.9
20260508030923 12 0 8.0 8.0 0.00 0.10 0.00 81 1011.9
20260508030423 12 0 8.0 8.0 0.00 0.10 0.00 81 1011.9
20260508025924 12 0 4.8 4.8 0.00 0.10 0.00 81 1012.0
20260508025423 12 0 4.8 6.4 0.00 0.10 0.00 82 1012.0
20260508024923 12 0 6.4 8.0 0.00 0.10 0.00 82 1011.9
20260508024423 12 0 6.4 6.4 0.00 0.10 0.00 82 1011.9
20260508023924 12 0 4.8 8.0 0.00 0.10 0.00 83 1012.0
20260508023424 12 0 8.0 8.0 0.00 0.10 0.00 83 1011.8
20260508022924 12 0 6.4 6.4 0.00 0.10 0.00 84 1011.9
20260508022424 12 0 6.4 8.0 0.00 0.10 0.00 84 1011.8
20260508021924 12 0 8.0 8.0 0.00 0.10 0.00 84 1012.0
20260508021424 13 0 0.0 0.0 0.00 0.10 0.00 84 1011.8
20260508020924 13 0 0.0 0.0 0.00 0.10 0.00 84 1011.9
20260508015924 13 0 0.0 0.0 0.00 0.10 0.00 84 1011.9
20260508015424 13 0 0.0 0.0 0.00 0.10 0.00 84 1012.0
20260508014924 13 0 0.0 0.0 0.00 0.10 0.00 84 1011.9
20260508014424 13 0 0.0 0.0 0.00 0.10 0.00 83 1012.2
20260508013924 13 0 0.0 0.0 0.00 0.10 0.00 83 1012.2
20260508013424 13 0 0.0 0.0 0.00 0.10 0.00 83 1012.1
20260508012924 13 0 0.0 0.0 0.00 0.10 0.00 83 1012.1
20260508012424 13 0 0.0 0.0 0.00 0.10 0.00 83 1012.3
20260508011924 13 0 0.0 1.6 0.00 0.10 0.00 83 1012.2
20260508011424 13 0 1.6 1.6 0.00 0.10 0.00 83 1012.4
20260508010924 13 0 0.0 3.2 0.00 0.10 0.00 83 1012.6
20260508010424 14 0 0.0 0.0 0.00 0.10 0.00 82 1012.7
20260508005924 14 0 0.0 0.0 0.00 0.10 0.00 82 1012.6
20260508005424 14 0 0.0 3.2 0.00 0.10 0.00 82 1012.7
20260508004924 14 0 3.2 3.2 0.00 0.10 0.00 82 1012.7
20260508004424 14 0 0.0 0.0 0.00 0.10 0.00 82 1012.8
20260508003924 14 0 0.0 0.0 0.00 0.10 0.00 82 1012.7
20260508003424 14 0 0.0 0.0 0.00 0.10 0.00 82 1012.7
20260508002924 14 0 0.0 0.0 0.00 0.10 0.00 82 1012.7
20260508002424 14 0 0.0 0.0 0.00 0.10 0.00 82 1012.7
20260508001924 15 0 0.0 0.0 0.00 0.10 0.00 82 1012.8
20260508001424 15 0 0.0 0.0 0.00 0.10 0.00 81 1012.8
20260508000924 15 0 0.0 0.0 0.00 0.10 0.00 81 1012.9
20260508000424 15 0 0.0 0.0 0.00 0.10 0.00 81 1012.8
20260507235924 15 0 0.0 0.0 0.00 0.10 0.00 81 1012.7
20260507235424 15 0 0.0 0.0 0.00 0.10 0.00 81 1012.9